Home   Weather   Fernando de Noronha   Past weeks

Flag for Brazil Past Weather in Fernando de Noronha, Pernambuco, Brazil — Yesterday and Last 2 Weeks

Now
79 °F

Passing clouds.


Feels Like: 82 °F
Forecast: 78 / 81 °F
Wind: 3 mph from Southeast

Location: Natal Aeroporto

Current Time: Dec 8, 2016 at 4:11:10 am

Latest Report: Dec 8, 2016 at 4:00 am


Visibility: N/A

Pressure: 29.86 "Hg

Humidity: 84%

Dew Point: 73 °F

Location of Fernando de NoronhaLocation

Past Weather in Fernando de Noronha — Graph

°F

Fernando de Noronha Temperature Yesterday

Maximum temperature yesterday: 88 °F (at 12:00 pm)
Minimum temperature yesterday: 77 °F (at 4:00 am)
Average temperature yesterday: 82 °F

High & Low Weather Summary for the Past Weeks

 TemperatureHumidityPressure
High90 °F (Nov 24, 1:00 pm)94% (Nov 29, 7:00 am)29.98 "Hg (Nov 29, 7:00 am)
Low73 °F (Nov 23, 5:00 am)46% (Nov 28, 11:00 am)29.83 "Hg (Nov 23, 3:00 am)
Average82 °F73%29.90 "Hg
* Reported Nov 23 3:00 am — Dec 8 3:00 am, Fernando de Noronha, Weather by CustomWeather, © 2016

Note: Actual official high and low records may vary slightly from our data, if they occured in-between our weather recording intervals... More about our weather records

Advertising

Fernando de Noronha Weather History for the Previous 24 Hours

Scroll right to see more
 ConditionsComfort  
Time TempWeatherWind HumidityBarometerVisibility
3:00 am
Thu, Dec 8
79 °FPassing clouds.6 mph84%29.86 "HgN/A
2:00 am79 °FPassing clouds.3 mph84%29.86 "HgN/A
1:00 am79 °FPassing clouds.6 mph84%29.86 "HgN/A
12:00 am79 °FPassing clouds.8 mph84%29.89 "HgN/A
11:00 pm
Wed, Dec 7
81 °FPassing clouds.8 mph79%29.89 "HgN/A
10:00 pm81 °FPassing clouds.10 mph79%29.89 "HgN/A
9:00 pm81 °FPassing clouds.10 mph79%29.89 "HgN/A
8:00 pm81 °FPassing clouds.10 mph79%29.86 "HgN/A
7:00 pm81 °FPassing clouds.10 mph79%29.86 "HgN/A
6:00 pm82 °FScattered clouds.10 mph74%29.86 "HgN/A
5:00 pm84 °FPartly sunny.13 mph70%29.86 "HgN/A
4:00 pm86 °FScattered clouds.12 mph66%29.83 "HgN/A
3:00 pm86 °FPartly sunny.12 mph62%29.86 "HgN/A
2:00 pm88 °FPartly sunny.14 mph59%29.86 "HgN/A
1:00 pm88 °FPartly sunny.13 mph62%29.89 "HgN/A
12:00 pm88 °FScattered clouds.14 mph59%29.89 "HgN/A
11:00 am86 °FScattered clouds.12 mph66%29.92 "HgN/A
10:00 am84 °FBroken clouds.10 mph66%29.92 "HgN/A
9:00 am84 °FScattered clouds.7 mph66%29.92 "HgN/A
8:00 am82 °FScattered clouds.12 mph74%29.89 "HgN/A
7:00 am79 °FScattered clouds.8 mph79%29.86 "HgN/A
6:00 am77 °FScattered clouds.6 mph83%29.83 "HgN/A
5:00 am77 °FPassing clouds.6 mph89%29.83 "HgN/A
4:00 am77 °FPassing clouds.7 mph89%29.83 "HgN/A
Weather by CustomWeather, © 2016

See weather overviewHow to use our weather pages